sat.trackr.live / text

‹ back to catalog

STARLINK-3690

NORAD 51964 · 2022-025J

PAYLOAD ACTIVE UNKNOWN

§ Identity

Operator
Country
US
Launch date
2022-03-09
Launch site
AFETR
Launch vehicle
Mass (kg)
RCS (m²)

Purposes: comms

External: N2YO · Heavens-Above · Gunter

§ Orbital elements

Epoch: 2026-05-24T23:26:54.110688Z

Period
94.01 min
Inclination
53.1613°
Eccentricity
0.0000863
Mean motion
15.31692497 rev/d
Perigee alt
470.2 km
Apogee alt
471.4 km
Semi-major
6,848.9 km
B*
-2.2918e-5
RAAN
29.4713°
Arg perigee
98.6464°
Mean anomaly
261.4635°
Rev number
23,270

§ Raw data

STARLINK-36901 51964U 22025J   26144.97701517 -.00001076  00000+0 -22918-4 0  99912 51964  53.1613  29.4713 0000863  98.6464 261.4635 15.31692497232704

JSON: /api/v1/satellites/51964 · /tle

For live sub-satellite position, see the globe view (requires WebGL).

§ Visibility from observer

Set your observer location to see the next 7 days of passes ≥ 10°. The values pass through the URL so the page stays shareable.

No JS? Fill the form by hand. The geolocation button needs JavaScript.